Date,TemperatureHighF,TemperatureAvgF,TemperatureLowF,DewpointHighF,DewpointAvgF,DewpointLowF,HumidityHigh,HumidityAvg,HumidityLow,PressureMaxIn,PressureMinIn,WindSpeedMaxMPH,WindSpeedAvgMPH,GustSpeedMaxMPH,PrecipitationSumIn
2013-2-1,42,27,17,32,14,7,87,60,35,30.46,30.07,22,4,22,0.01
2013-2-2,36,27,20,31,21,11,91,77,52,30.44,30.15,11,1,11,0.04
2013-2-3,49,38,34,34,30,27,91,72,45,30.17,30.03,22,4,22,0.01
2013-2-4,44,42,40,28,27,26,61,56,51,30.06,30.00,11,1,11,0.00
2013-2-5,60,47,38,42,36,27,89,68,38,30.05,29.94,10,1,10,0.01
2013-2-6,59,49,40,40,32,24,74,52,36,30.21,30.05,11,2,11,0.00
2013-2-7,50,47,45,45,34,27,92,63,44,30.14,29.96,9,0,9,0.00
2013-2-8,49,43,33,46,38,27,97,83,63,30.29,29.91,19,2,19,0.08
2013-2-9,52,40,29,28,25,21,82,59,35,30.38,30.25,12,1,12,0.00
2013-2-10,52,47,44,50,35,22,99,65,33,30.25,29.99,28,6,28,0.39
2013-2-11,54,50,42,52,41,28,99,75,39,30.15,29.99,23,2,23,0.02
2013-2-12,49,43,38,36,30,26,82,60,45,30.19,29.86,15,1,15,0.06
2013-2-13,44,39,36,44,36,30,99,89,74,30.03,29.71,22,2,22,0.07
2013-2-14,55,42,32,36,31,27,84,66,40,30.11,30.01,13,2,13,0.01
2013-2-15,53,43,34,39,32,25,75,65,54,30.13,30.04,19,3,19,0.00
2013-2-16,34,29,24,25,17,6,77,61,38,30.22,30.06,18,4,18,0.00
2013-2-17,41,27,20,14,9,6,60,48,28,30.34,30.20,15,1,15,0.00
2013-2-18,50,48,47,26,25,23,44,41,38,30.06,30.00,38,12,38,0.00
2013-2-19,50,41,33,44,26,8,98,62,24,30.22,29.95,23,4,23,0.35
2013-2-20,37,31,25,16,13,5,64,48,29,30.30,30.19,11,1,11,0.00
2013-2-21,48,36,28,36,20,11,97,54,27,30.27,30.01,15,2,15,0.43
2013-2-22,45,43,37,43,42,36,98,95,87,30.11,30.00,18,2,18,0.12
2013-2-23,54,46,40,47,43,32,99,89,72,30.07,29.87,13,2,13,0.18
2013-2-24,55,43,30,33,27,20,82,57,36,30.09,29.95,14,1,14,0.00
2013-2-25,52,44,38,41,27,20,79,51,41,30.06,29.78,16,3,16,0.00
2013-2-26,47,42,36,44,40,33,100,93,74,29.78,29.51,23,4,23,0.75
2013-2-27,50,39,35,35,32,27,93,74,52,29.90,29.76,21,3,21,0.00
2013-2-28,36,34,31,28,25,22,84,71,63,30.07,29.85,15,4,19,0.01